Theta_e
303 304 304 303 303 302 302 306 306 306 309 313 315 316 310 306 306 304 302 306 308 311 313 315 317 317 322 314 314 318 314 315 317 318 320 323 323 324 325 325 327 328 329 330 328
301 303 303 303 302 303 304 306 306 306 307 311 314 317 312 306 304 304 304 303 304 306 309 313 314 313 316 313 315 316 313 315 314 315 318 322 323 325 327 327 329 329 329 331 328
294 297 301 302 303 302 303 303 305 306 307 308 313 315 312 306 307 305 306 303 303 303 305 309 312 312 312 313 315 314 314 312 315 316 319 321 323 325 326 327 328 329 330 332 330
293 293 296 299 301 303 303 304 305 306 307 307 310 315 311 308 307 308 308 306 302 302 304 306 308 314 312 313 314 314 314 313 313 317 319 319 323 325 327 328 329 328 330 332 330
295 293 292 294 296 299 302 303 304 305 306 307 308 313 314 310 307 307 306 305 305 304 304 305 308 315 313 312 313 315 315 315 315 317 317 317 319 322 324 328 329 329 330 331 330
298 297 297 294 294 298 302 302 303 304 306 308 309 310 313 309 309 307 306 305 304 305 305 305 306 314 315 313 312 313 315 316 316 316 317 316 314 318 323 326 328 329 330 330 329
298 300 299 298 294 294 300 302 303 304 305 307 308 309 309 311 310 309 307 306 306 304 304 305 309 312 314 313 313 315 315 315 315 316 316 317 314 314 319 323 327 330 330 330 329
299 300 299 300 299 294 295 301 302 303 303 306 308 309 307 310 311 309 309 309 308 306 305 305 311 314 314 314 314 314 315 315 314 315 316 315 312 311 315 321 328 330 331 331 330
300 300 300 300 300 298 293 298 302 302 303 305 307 307 306 312 312 309 309 310 309 308 309 306 313 313 315 312 314 314 313 313 315 314 315 314 315 312 314 317 324 329 331 332 331
300 300 300 300 300 300 295 295 301 302 303 306 308 306 307 311 313 310 311 308 308 309 311 312 314 313 312 311 313 313 312 312 313 312 314 315 314 312 313 313 314 320 327 330 331
299 299 299 300 300 300 295 296 303 304 302 306 306 306 308 310 313 311 312 312 311 310 309 315 312 311 310 311 311 311 312 312 310 310 315 315 313 313 314 314 313 313 313 319 326
299 299 299 299 300 299 298 302 302 304 303 302 305 307 308 306 312 312 313 312 312 309 310 312 309 309 312 313 313 313 311 310 310 311 312 310 309 309 310 312 315 316 315 314 314
300 299 299 299 300 295 299 300 302 302 303 303 305 307 307 306 309 311 311 310 310 310 310 308 306 307 312 314 314 312 311 309 311 311 311 310 308 308 308 309 312 314 316 316 316
300 299 299 299 299 295 296 297 301 302 302 301 306 308 306 307 308 311 311 310 311 311 307 307 306 309 308 311 312 314 311 310 309 310 311 308 306 305 305 305 305 309 312 314 315
300 300 299 300 299 295 295 298 301 302 296 300 307 307 308 306 307 310 310 311 311 311 310 310 307 309 309 308 311 310 309 310 310 309 310 310 307 305 305 306 305 305 309 311 311
297 297 299 300 299 295 298 299 301 294 297 303 308 308 308 307 308 307 310 310 310 310 310 310 306 307 308 307 310 308 308 308 308 309 311 308 308 307 307 306 307 306 308 308 309
295 296 300 300 300 296 298 300 291 290 297 300 306 306 308 309 309 310 309 310 311 313 313 309 309 306 306 308 308 308 309 309 309 305 309 303 308 311 307 305 304 304 306 307 307
297 299 299 300 299 296 299 291 287 285 294 303 304 305 306 308 309 310 311 311 311 311 312 313 314 307 305 308 309 308 309 308 308 309 309 304 309 307 304 304 305 306 307 307 307
299 298 300 299 298 299 298 286 288 288 300 301 301 303 306 308 310 309 310 311 310 311 312 312 312 307 305 306 308 310 311 307 304 293 301 304 303 301 302 302 303 304 305 306 307
299 299 298 296 297 299 291 293 287 297 301 302 298 304 300 306 308 309 306 308 310 310 309 310 312 307 307 308 309 309 307 310 307 300 301 301 301 302 303 304 303 304 305 306 307
298 298 297 297 297 297 286 284 288 298 300 300 302 303 304 304 303 307 308 308 308 310 309 310 310 306 307 308 308 309 309 308 308 302 303 300 299 297 301 302 300 301 305 307 307
298 288 298 298 294 288 287 283 297 297 299 298 302 303 305 304 304 305 307 308 307 308 310 309 309 308 309 307 305 308 309 309 311 308 303 302 301 300 298 298 299 300 303 305 306
297 298 298 298 287 281 285 285 294 295 297 298 298 301 303 305 304 306 305 301 306 307 308 308 310 307 309 307 306 308 308 310 307 305 306 305 304 300 299 298 300 301 303 304 306
297 289 296 297 296 292 289 284 290 296 298 299 300 300 301 303 303 301 305 305 303 303 305 307 309 311 309 310 307 308 308 309 310 311 309 305 305 303 302 301 300 301 304 304 306
297 290 292 286 293 295 287 286 288 291 295 297 297 299 300 300 301 302 299 302 303 305 303 303 309 309 309 309 308 309 309 308 310 310 311 309 306 303 302 300 301 305 305 304 306
297 295 294 295 292 291 293 287 292 293 295 292 296 297 298 300 300 298 300 300 299 302 304 305 308 306 308 309 309 310 307 309 309 310 310 308 306 302 303 302 302 304 306 307 307
298 296 296 293 294 293 290 290 292 295 296 297 297 298 298 297 300 300 300 300 300 301 302 304 301 304 305 305 308 309 307 307 307 308 308 309 309 305 305 304 306 305 306 307 307
Wind_Speed
17 19 21 22 23 23 25 24 26 30 29 27 26 25 23 23 25 24 28 29 23 25 14 16 17 15 17 6 7 5 3 3 5 6 5 6 5 5 7 10 8 9 4 4 23
17 18 18 19 20 20 21 22 22 27 34 27 28 19 22 22 23 30 28 23 22 21 20 24 17 14 13 4 5 5 4 8 5 5 4 5 7 13 7 8 8 10 9 7 25
18 18 18 18 19 19 21 25 24 24 29 34 20 25 22 20 17 33 24 21 20 20 20 17 20 18 10 12 7 5 6 4 4 7 4 2 7 11 9 4 13 22 17 16 26
17 18 18 18 20 20 19 21 22 23 24 30 24 16 21 19 8 10 19 21 23 21 18 19 17 10 7 8 9 4 8 5 2 4 1 2 3 7 15 7 19 18 19 21 27
16 18 20 20 21 20 20 21 21 21 21 21 35 18 24 19 24 7 9 13 16 22 23 20 20 11 7 7 7 3 2 6 17 5 4 3 4 5 13 13 8 18 22 23 24
17 18 20 22 22 21 20 20 20 21 19 17 27 23 12 11 19 13 12 12 10 15 22 21 12 14 9 5 8 7 9 3 5 9 5 2 2 1 5 15 12 20 25 25 25
19 19 19 21 24 23 19 19 17 20 19 17 15 18 21 25 5 16 16 11 7 10 15 21 10 13 7 4 5 7 5 2 8 4 3 5 7 6 7 12 14 23 26 28 28
19 20 20 21 23 24 22 19 19 21 18 17 12 11 9 16 17 16 18 14 12 10 10 17 9 8 4 6 4 6 3 3 2 9 3 6 8 6 16 10 16 21 26 29 30
17 18 19 19 23 23 24 21 19 19 19 13 14 4 8 10 28 15 14 15 15 13 13 14 9 5 4 7 4 1 5 5 3 9 3 5 5 3 7 14 16 19 24 27 29
16 16 18 18 21 23 24 22 17 17 14 11 6 1 10 8 26 20 16 15 11 14 11 10 5 2 1 4 11 7 5 2 5 4 3 3 10 6 1 10 18 18 19 25 28
15 16 18 18 19 22 24 21 10 4 19 8 6 5 8 10 10 24 19 11 8 11 4 6 4 8 5 3 2 6 5 6 4 3 4 5 6 9 14 11 11 15 21 25 28
13 15 16 16 18 17 14 10 10 13 11 21 15 19 20 22 5 22 21 12 9 5 6 4 6 6 6 4 4 5 4 4 2 3 4 3 8 11 8 10 22 26 22 24 30
13 15 15 15 13 10 10 13 12 12 5 8 10 12 12 8 9 20 26 13 5 6 6 6 2 10 7 5 6 4 4 2 2 4 1 3 6 8 6 13 26 31 33 32 31
13 14 15 13 6 11 9 15 14 11 3 4 3 5 9 8 6 10 28 11 4 8 6 3 3 10 5 6 7 7 7 1 5 4 3 1 5 6 6 8 7 23 29 35 40
11 12 13 9 8 8 14 13 11 7 5 6 1 3 6 8 5 2 14 2 10 9 7 6 7 11 4 6 6 5 6 8 3 2 3 2 4 7 1 6 8 12 28 35 39
10 10 9 6 6 10 12 8 10 5 4 7 5 3 5 7 5 6 4 2 5 6 1 2 2 4 7 3 7 8 7 6 4 3 3 6 5 4 6 6 4 7 14 14 15
10 7 6 5 7 9 8 7 5 4 6 8 4 6 7 2 5 8 2 4 5 6 5 4 2 1 4 6 3 3 7 2 2 1 6 4 5 9 7 7 6 6 10 8 9
7 3 4 5 6 7 4 5 6 4 4 4 7 9 3 2 5 8 6 5 5 1 3 5 4 9 5 6 7 8 10 5 7 4 3 1 7 6 6 14 15 18 21 16 8
3 1 2 3 5 3 4 5 6 6 4 6 10 4 3 4 1 2 6 6 7 6 4 5 4 2 2 3 9 6 6 4 6 3 2 4 7 8 9 10 8 12 11 9 6
4 3 3 3 3 3 4 3 3 3 4 2 1 3 4 9 4 5 5 4 6 11 3 2 1 1 3 3 4 6 8 3 1 4 4 4 5 5 5 6 5 6 7 6 8
3 0 3 4 5 1 3 6 4 6 4 2 4 5 4 3 1 5 6 2 3 7 10 3 1 3 5 9 14 4 7 4 4 4 5 1 6 7 7 3 7 7 9 6 7
2 2 1 2 2 2 1 4 4 5 4 4 5 6 4 3 3 4 4 2 4 6 5 6 2 4 7 1 4 15 10 13 6 5 2 2 5 4 6 6 9 11 8 7 5
2 1 1 0 2 2 5 4 3 3 3 2 4 2 2 2 3 1 5 7 10 8 7 7 5 1 1 3 4 13 8 15 4 3 6 5 6 3 5 7 4 2 3 4 4
1 2 1 2 0 4 2 4 4 4 6 5 3 5 3 3 1 4 5 4 3 3 5 7 4 7 8 3 4 7 15 16 18 7 11 8 4 4 2 4 5 9 7 3 5
4 2 2 2 3 3 1 3 2 3 4 3 2 1 4 4 4 3 2 4 5 7 6 1 3 7 8 6 4 7 12 15 14 18 12 22 11 8 10 4 5 8 9 7 7
4 4 3 3 1 4 5 4 4 3 3 5 3 3 2 4 4 4 5 1 6 4 1 3 1 6 2 6 6 3 5 17 17 11 10 13 10 6 1 5 12 13 3 4 4
11 8 3 3 3 4 5 6 6 3 7 13 5 2 7 6 8 17 20 14 8 3 2 1 2 3 3 4 2 3 12 15 14 16 21 14 24 5 7 10 19 15 7 8 6
Wind_Direction
307 302 299 299 298 299 293 292 288 277 282 267 257 245 249 254 258 250 244 247 243 236 226 222 228 241 259 261 240 180 84 215 217 162 242 177 181 171 178 161 173 188 185 194 176
318 317 309 304 301 301 295 292 288 279 277 280 263 249 241 248 255 253 245 242 237 231 227 225 222 208 216 232 227 177 149 220 205 203 238 195 192 166 163 169 198 189 191 180 177
332 323 318 313 304 298 294 292 289 270 280 272 297 271 227 236 265 260 240 232 224 221 222 220 218 219 187 199 210 196 182 211 266 240 261 253 199 176 148 234 208 201 192 180 181
346 342 333 317 306 298 291 296 289 290 272 268 292 274 216 210 215 228 220 216 215 214 214 212 196 182 184 181 193 199 219 182 277 236 248 252 202 196 195 204 224 217 205 183 187
344 345 343 333 321 312 296 293 299 292 283 279 263 287 204 203 224 216 196 195 196 204 207 203 189 179 187 191 159 182 142 220 238 243 231 259 252 236 239 222 232 204 201 196 196
332 339 339 338 333 328 311 299 294 310 293 288 277 290 241 230 228 209 184 160 179 196 205 205 207 191 180 205 172 187 182 258 268 253 212 218 239 217 271 213 206 197 197 200 202
319 327 332 334 335 334 322 308 296 298 293 295 273 285 276 232 255 209 201 164 152 184 195 202 207 189 163 143 196 125 118 194 243 223 243 181 278 219 247 206 205 197 200 202 205
316 315 322 327 331 331 327 312 301 297 288 282 290 253 249 289 223 204 189 171 161 167 180 190 180 189 194 133 78 123 114 182 249 163 237 163 257 257 231 215 211 206 206 208 209
326 317 319 324 324 328 329 321 307 302 300 288 310 316 278 271 208 197 184 170 162 164 154 169 172 183 158 130 85 232 196 173 311 208 139 180 258 244 217 210 222 221 216 215 216
323 323 320 324 325 329 331 329 319 303 304 305 270 290 272 280 209 192 158 142 141 158 132 147 160 146 96 179 195 170 135 164 184 207 178 191 249 262 232 214 226 227 228 228 228
327 326 328 320 322 331 337 347 3 353 342 294 288 224 300 276 222 201 173 157 130 157 151 149 128 202 210 123 53 137 139 158 181 182 168 245 255 261 270 256 254 242 237 235 235
331 335 331 324 320 340 357 24 343 332 299 305 258 257 269 301 252 207 210 168 178 162 129 97 202 179 166 224 78 44 133 175 132 112 169 287 268 263 246 242 247 249 248 244 243
328 335 331 327 332 354 4 2 346 332 289 297 237 241 244 268 321 196 186 172 140 135 179 171 225 158 159 175 163 171 152 169 128 85 243 332 288 262 258 242 251 251 251 251 254
326 332 333 340 340 353 350 346 347 331 311 291 360 250 207 211 285 187 182 162 125 175 130 204 153 169 153 191 168 216 157 61 55 71 236 46 275 271 252 258 251 251 248 248 248
326 332 335 349 346 358 343 345 348 330 10 311 291 196 204 146 323 274 196 129 150 147 150 207 167 147 149 187 140 200 155 176 180 154 43 230 281 264 250 274 263 246 247 249 251
324 327 330 337 353 351 350 351 336 44 273 337 318 241 201 172 152 297 147 102 97 109 89 88 162 158 171 144 145 146 88 65 72 107 262 198 204 218 202 202 234 257 261 272 280
323 327 323 326 328 342 353 349 33 104 338 328 347 338 317 135 206 178 241 186 158 157 171 119 192 262 152 100 105 138 128 52 19 9 236 325 187 259 279 255 220 261 283 318 315
320 311 323 319 329 356 39 47 69 248 278 325 338 298 276 187 236 208 200 226 278 25 115 151 206 175 188 170 170 174 172 154 182 202 222 25 234 247 240 286 275 264 268 275 299
9 65 16 345 335 51 35 49 201 208 286 341 335 337 314 237 16 251 222 231 183 227 177 165 257 94 139 128 146 200 211 152 106 42 67 223 291 286 287 279 271 273 273 266 227
32 90 57 11 88 112 71 252 222 242 334 324 66 306 1 7 211 208 197 233 217 191 55 90 240 116 152 117 31 188 149 154 28 135 244 272 279 247 309 282 295 284 272 251 201
358 346 53 90 127 86 142 231 292 312 337 320 293 291 270 312 220 262 214 319 218 190 184 109 76 316 132 205 184 161 191 206 135 158 177 208 257 222 242 280 290 287 278 235 211
309 28 138 80 45 11 100 194 324 284 254 253 273 268 232 206 230 275 242 339 239 142 207 159 152 191 199 265 263 199 204 204 201 199 222 151 270 207 240 280 261 267 286 226 220
253 236 230 5 109 316 312 299 256 306 287 316 282 280 326 302 317 65 342 329 13 172 174 160 207 149 261 342 329 200 191 194 157 102 198 155 253 263 209 62 51 88 115 155 160
262 10 120 218 205 146 245 287 310 268 282 262 256 306 306 296 81 307 357 330 61 19 12 187 207 222 226 124 132 208 204 196 202 209 224 232 244 312 279 98 74 97 100 124 160
211 246 172 230 255 205 90 168 272 334 247 287 324 214 314 303 327 279 297 319 272 198 146 212 277 219 217 222 175 186 219 211 207 212 197 239 249 249 283 192 170 101 101 102 122
200 165 180 265 233 155 205 235 220 255 213 281 216 317 221 249 262 302 352 149 255 348 88 167 260 1 219 186 213 219 204 199 223 232 245 251 262 219 180 219 224 225 202 148 147
218 214 209 213 210 200 215 213 224 171 265 242 270 318 312 264 289 270 270 262 264 226 211 231 156 105 307 39 55 235 212 213 211 206 214 228 243 174 222 226 241 244 247 245 269